Погода в Нижней Банновке

Россия / Саратовская область     50°43′53″N   45°38′50″E
темп.,
°C
ветер,
м/с
пор.,
м/с
влажн.,
%
обл.,
%
осадки,
мм/ч
давл.,
гПа
погр.,
м
8 августа, пн
пн801:00+23ссв454514 0.0 101754
04:00+21ссв33524 0.0 101741
07:00+21ссв36525 0.0 101890
10:00+25св45425 0.0 1018318
13:00+29всв44325 0.0 10181208
16:00+29в773093 0.0 10171623
19:00+27ссз223653 0.1 101737
22:00+23с484822 0.2 1018107
9 августа, вт
вт901:00+22с34524 0.0 101845
04:00+21с44565 0.0 101858
07:00+21с47620 0.0 1019129
10:00+25св57490 0.0 1019373
13:00+29св44380 0.0 10181393
16:00+30ссв33310 0.0 10171990
19:00+29ссв45361 0.0 1017143
22:00+24ссв33462 0.0 101724
10 августа, ср
ср1001:00+22всв22512 0.0 101711
04:00+22ссв22554 0.0 101711
07:00+22св22595 0.0 101858
10:00+25всв344967 0.0 1018315
13:00+28всв22375 0.0 10171359
16:00+30в22315 0.0 10161995
19:00+29св35359 0.0 1016123
22:00+25ссв33419 0.0 101624
11 августа, чт
чт1101:00+23ссв334850 0.0 101718
04:00+22с33515 0.0 101619
07:00+22ссв355489 0.0 101883
10:00+26св5749100 0.0 1018364
13:00+29св5638100 0.0 10181064
16:00+30ссв6533100 0.0 10171448
19:00+28св5844100 0.0 1017318
22:00+24св712624 0.1 1019262
12 августа, пт
пт1201:00+21св510650 0.0 1020254
04:00+19св611600 0.0 1021282
07:00+18св510610 0.0 1023320
10:00+22св57480 0.0 1023460
13:00+25св56390 0.0 1022663
16:00+27св45352 0.0 1021863
19:00+25ссв463772 0.0 1021207
22:00+21св34450 0.0 102144